Weather at Otradnaya Airport

Public forecast

Using degrees Celsius for public forecast. Weather courtesy of forecast.io.

Closest aviation weather report (METAR) to Otradnaya Airport

Closest report is Stavropol Shpakovskoye Airport, 51.1 nm (94.5 km) NNE. Retrieved 2021/01/17 02:30 UTC (0 seconds ago):

URMT 170230Z 09010MPS 6000 -SN OVC007 M03/M04 Q1007 R07/190060 NOSIG RMK QFE715

Closest aviation forecast (TAF) to Otradnaya Airport

Forecast is more than 12 hours old.

Closest forecast is Stavropol Shpakovskoye Airport, 51.1 nm (94.5 km) NNE. Retrieved 2019/08/03 03:15 UTC (1 year ago):

TAF URMT 030200Z 0303/0321 31005G12MPS 9999 SCT020